• Processing (Info)

  • MPEC 2008-Y10 : 2005 TE15

    The following Minor Planet Electronic Circular may be linked-to from your own Web pages, but must not otherwise be redistributed electronically.

    A form allowing access to any MPEC is at the bottom of this page.


    Read MPEC 2008-Y09 Read MPEC 2008-Y11


    M.P.E.C. 2008-Y10                                Issued 2008 Dec. 19, 22:12 UT
    
         The Minor Planet Electronic Circulars contain information on unusual
             minor planets and routine data on comets.  They are published
       on behalf of Commission 20 of the International Astronomical Union by the
              Minor Planet Center, Smithsonian Astrophysical Observatory,
                              Cambridge, MA 02138, U.S.A.
    
                 Prepared using the Tamkin Foundation Computer Network
    
                                  MPC@CFA.HARVARD.EDU
              URL http://www.cfa.harvard.edu/iau/mpc.html  ISSN 1523-6714
    
                                       2005 TE15
    
                               Revision to MPEC 2005-T38
    
    Additional Observations:
         K05T15E  C2008 12 18.90626 07 49 20.45 +54 01 46.1          21.1 C EY010493
         K05T15E  C2008 12 18.91601 07 49 19.08 +54 01 58.3          20.9 C EY010493
         K05T15E  C2008 12 18.92576 07 49 17.59 +54 02 10.7          20.7 C EY010493
         K05T15E  C2008 12 19.90608 07 46 55.19 +54 21 40.4          20.2 C EY010493
         K05T15E  C2008 12 19.91007 07 46 54.61 +54 21 45.3          20.4 C EY010493
         K05T15E  C2008 12 19.91408 07 46 53.99 +54 21 50.2          20.2 C EY010493
    
    Observer details:
    493 Calar Alto.  Observer F. Hormuth.  1.23-m reflector + CCD.
    
    First and last observations above in comparison with prediction:
    Residuals in seconds of arc (or two decimals in degrees), reference and Delta-T
    081218 493 0.09- 0.02+    081219 493 0.09- 0.02+    MPO 97848   +0.10 day
    
    Orbital elements:
    2005 TE15                                                Earth MOID = 0.0555 AU
    Epoch 2008 Nov. 30.0 TT = JDT 2454800.5                 MPC
    M 208.79106              (2000.0)            P               Q
    n   0.74565521     Peri.  241.16609     -0.31101989     +0.94941883
    a   1.2044183      Node    10.97586     -0.77349566     -0.22642261
    e   0.3435745      Incl.   13.12966     -0.55224188     -0.21756996
    P   1.32           H   19.9           G   0.15           U   4
    Residuals in seconds of arc
    051004 644  0.2+  0.5+    051005 E12  0.7+  0.1+    051017 448  0.3-  0.2-
    051004 644  0.5+  0.5+    051005 E12  0.1-  0.5+    051017 448  0.3-  0.6-
    051004 644  0.2+  0.6+    051005 E12  0.1+  0.4+    051017 448  0.3-  0.0
    051004 J95  0.4-  0.5-    051006 703  1.2-  1.2-    051023 448  0.5-  0.3-
    051004 J95  0.3-  0.2-    051006 703  0.4+  0.4+    051023 448  0.3-  0.7-
    051004 J95  0.8-  0.7+    051006 703  0.4-  0.2+    051023 448  0.2+  0.5-
    051005 I77  0.6-  0.2-    051006 703  0.1+  0.4-    051101 291  0.1+  0.0
    051005 I77  0.2+  0.3-    051007 291  0.1+  0.3-    051101 291  0.1+  0.1+
    051005 I77  0.1+  0.1+    051007 291  0.1+  0.0     051101 291  0.5-  0.0
    051005 734 (0.0   1.8+)   051007 291  0.0   0.2+    051125 291  1.3+  0.5-
    051005 H36 (1.8+  2.9+)   051007 G96  0.0   0.2-    051125 291  0.4+  0.3+
    051005 734  1.0+  0.5+    051007 G96  0.2-  0.2-    051125 291 (1.8+  0.2+)
    051005 734  0.4-  0.5+    051007 G96  0.2+  0.1+    081218 493  0.2+  0.3+
    051005 734  0.1-  0.5+    051007 G96  0.1+  0.1-    081218 493  0.5+  0.3+
    051005 H36  1.3+  0.3-    051007 290  0.0   0.1-    081218 493  0.2-  0.5+
    051005 H36  0.9+  0.4-    051007 290  0.1+  0.1-    081219 493  0.1-  0.3+
    051005 854  0.5+  0.7+    051007 290  0.0   0.1-    081219 493  0.1+  0.3+
    051005 854  1.2+  0.2+    051012 448  1.1+  0.0     081219 493  0.1+  0.3+
    051005 854  0.3-  0.3+    051012 448  0.0   0.3-
    051005 E12  0.4+  0.4+    051012 448  0.4+  0.2-
    
    Ephemeris:
    2005 TE15                a,e,i = 1.20, 0.34, 13                  q = 0.7906
    Date    TT    R. A. (2000) Decl.     Delta      r     Elong.  Phase     V
    2008 12 20    07 46.67   +54 23.5    0.651    1.552   142.5    22.7    21.0
    2008 12 30    07 14.97   +57 09.8    0.612    1.527   145.3    21.5    20.8
    2009 01 09    06 33.77   +58 18.9    0.592    1.498   142.8    23.4    20.7
    2009 01 19    05 53.70   +57 27.3    0.590    1.466   135.9    27.8    20.8
    2009 01 29    05 24.73   +55 02.1    0.602    1.430   126.9    33.4    21.0
    2009 02 08    05 09.87   +51 53.4    0.623    1.390   117.6    39.0    21.1
    2009 02 18    05 06.93   +48 37.9    0.649    1.346   108.8    44.0    21.3
    2009 02 28    05 12.86   +45 31.2    0.676    1.299   100.8    48.5    21.4
    2009 03 10    05 25.16   +42 35.3    0.698    1.249    93.6    52.5    21.5
    2009 03 20    05 41.89   +39 45.0    0.715    1.196    87.1    56.2    21.6
    2009 03 30    06 01.73   +36 52.6    0.723    1.141    81.3    59.9    21.6
    2009 04 09    06 23.62   +33 49.5    0.721    1.084    76.1    63.7    21.6
    2009 04 19    06 46.57   +30 27.2    0.708    1.027    71.3    67.9    21.6
    2009 04 29    07 09.75   +26 37.7    0.683    0.971    67.0    72.7    21.6
    2009 05 09    07 32.18   +22 13.8    0.647    0.917    62.9    78.3    21.5
    
    Gareth V. Williams           (C) Copyright 2008 MPC           M.P.E.C. 2008-Y10
    

    Read MPEC 2008-Y09 Read MPEC 2008-Y11


    MPEC number:

    Enter an MPEC number in one of the following forms:

    • 1997-B01 (the full form)
    • J97B01 (the packed version of the full form)
    • B01 (the abbreviated form)